[[{"header":{"parameterUnit":"m.s-1","parameterCategory":1,"la1":30.2991,"la2":30.254,"lo1":-89.0895,"lo2":-89.0444,"dy":0.0017,"dx":0.0017,"nx":28,"ny":28,"refTime":"2025-07-19T21:00:00:Z","depth":0,"parameterNumber":2,"parameterNumberName":"U-component_of_WINDS"},"data":[0,0,0,0,0,0,0,0,0,0,0,0,0,0,0,0,0,0,0,0,0,0,0,0,0,0,0,0,0,0,0,0,0,0,0,0,0,0,0,0,0,0,0,0,0,0,0,0,0,0,0,0,0,0,0,0,0,0,4.6404,4.6406,0,4.6598,4.66,4.6602,4.6566,4.6563,4.6559,4.6556,4.6756,4.6764,4.6773,0,0,0,0,0,0,0,0,0,0,0,0,0,4.6004,4.6012,4.6404,4.6407,4.6409,4.6597,4.66,4.6603,4.6567,4.6563,4.6559,4.6555,4.6753,4.6763,4.6774,0,0,0,0,0,0,0,0,0,0,0,0,0,4.6186,4.6014,4.6404,4.6414,4.6417,4.6597,4.66,4.6603,4.6568,4.6563,4.6557,4.6553,4.675,4.6762,4.6775,4.6958,0,0,4.6814,4.682,0,0,0,0,0,0,0,0,4.6175,4.62,4.641,4.6413,4.6417,4.6552,4.6532,4.6722,4.6569,4.6511,4.6556,4.655,4.6693,4.671,4.6758,4.6967,4.6976,4.6815,4.6823,4.6829,4.6832,0,0,0,0,0,0,0,4.6163,4.6192,4.6481,4.6413,4.6417,4.6409,4.6429,4.6568,4.6628,4.6515,4.6513,4.6536,4.6694,4.6745,4.6762,4.6979,4.6815,4.6826,4.6834,4.6839,4.7346,4.7351,0,0,0,0,0,0,4.6147,4.6182,4.6475,4.6486,4.6281,4.642,4.6443,4.6514,4.6627,4.6639,4.6541,4.6534,4.6726,4.6747,4.6769,4.6989,4.6828,4.6841,4.6848,4.734,4.7347,4.7353,0,0,0,0,0,0,4.6138,4.6173,4.6467,4.6334,4.637,4.6433,4.6513,4.6521,4.6572,4.6646,4.6656,4.6582,4.6723,4.6751,4.691,4.6995,4.6846,4.6858,4.7333,4.7342,4.735,4.7431,0,0,0,0,0,0,4.6127,4.6171,4.6241,4.6335,4.6378,4.6605,4.6519,4.6528,4.6594,4.6588,4.6688,4.6699,4.6721,4.6892,4.6923,4.701,4.6868,4.7326,4.7337,4.7347,4.7421,4.7441,4.7458,0,0,0,0,0,4.6113,4.6257,4.6244,4.628,4.6466,4.661,4.6634,4.6655,4.6601,4.6672,4.6719,4.6696,4.6981,4.6908,4.6944,4.7036,4.7321,4.7334,4.7347,4.7412,4.7437,4.7458,0,0,0,0,0,0,4.6171,4.6269,4.6257,4.6435,4.6515,4.6604,4.6694,4.6681,4.6778,4.6768,4.679,4.6813,4.6975,4.7022,4.6939,4.7217,4.7143,4.7164,4.7181,4.7205,4.7224,4.7209,4.6879,0,0,0,0,0,4.6205,4.6313,4.6393,4.6543,4.6583,4.6632,4.6695,4.6704,4.6788,4.6821,4.688,4.6962,4.7069,4.714,4.7243,4.7427,4.7448,4.7508,4.7527,4.7542,4.7559,4.7658,4.7685,4.7396,4.7396,4.7396,0,0,4.6275,4.6342,4.6409,4.6556,4.6618,4.673,4.666,4.6782,4.6864,4.684,4.6993,4.7039,4.7132,4.7304,4.7383,4.7348,4.7644,4.7559,4.757,4.7579,4.7674,4.7702,4.7726,4.7405,4.7403,4.7402,0,0,4.646,4.6522,4.6653,4.6717,4.6812,4.6843,4.6874,4.6965,4.6994,4.7149,4.7132,4.7231,4.7417,4.7483,4.7541,4.7749,4.7731,4.7783,4.7881,4.7977,4.8,4.802,4.8093,4.8119,4.78,4.78,4.78,0,4.6536,4.6703,4.6722,4.6844,4.6909,4.6891,4.7023,4.7084,4.7208,4.7253,4.7212,4.7443,4.7504,4.769,4.7741,4.7789,4.7825,4.7771,4.7995,4.8015,4.8034,4.8104,4.8132,4.7805,4.7805,4.7804,4.7804,0,4.6791,4.6907,4.7001,4.712,4.7195,4.7322,4.7359,4.7433,4.7436,4.7471,4.7628,4.7701,4.7817,4.7862,4.7867,4.8049,4.8024,4.7989,4.7915,4.8067,4.8133,4.816,4.7813,4.7811,4.781,4.7808,0,0,4.7019,4.7145,4.7179,4.7232,4.7335,4.7425,4.755,4.7663,4.7725,4.7812,4.7917,4.8073,4.804,4.8106,4.8118,4.8202,4.8361,4.8156,4.8159,4.819,4.8564,4.8589,4.862,4.8349,4.8355,4.8359,4.8556,0,4.7212,4.7433,4.7452,4.7651,4.7757,4.7741,4.785,4.7924,4.7961,4.8056,4.8096,4.8206,4.8155,4.8195,4.8278,4.8324,4.8436,4.831,4.8447,4.8451,4.8423,4.8654,4.8682,4.8864,4.8582,4.8586,4.8589,0,4.7468,4.7559,4.7768,4.7853,4.7899,4.7997,4.8101,4.8193,4.8277,4.8297,4.837,4.8369,4.8498,4.8419,4.8596,4.851,4.8567,4.8598,4.8605,4.8618,4.8529,4.8672,4.8923,4.895,4.863,4.8627,4.8624,0,4.7611,4.7787,4.7934,4.798,4.8084,4.8153,4.8199,4.8278,4.8344,4.8436,4.8479,4.8584,4.8642,4.8724,4.8752,4.8692,4.8927,4.8851,4.8947,4.8946,4.8996,4.8992,4.9258,4.9035,4.9035,4.9034,4.9034,0,4.7824,4.7952,4.7999,4.8089,4.8231,4.8253,4.8393,4.8436,4.8506,4.8604,4.8597,4.8689,4.8721,4.8818,4.8841,4.8983,4.901,4.9029,4.9033,4.9029,4.9026,4.9066,4.9053,4.9042,4.904,4.9039,4.9037,0,4.8008,4.8045,4.8204,4.8289,4.8313,4.8414,4.8487,4.8573,4.8607,4.8731,4.8762,4.8816,4.893,4.8965,4.9104,4.9119,4.9284,4.9278,4.9256,4.9256,4.9349,4.9339,4.9648,4.9689,4.9441,4.9443,4.9445,0,4.8141,4.8239,4.8334,4.8398,4.8447,4.8552,4.8619,4.8643,4.8713,4.8815,4.8889,4.9002,4.9093,4.9276,4.9328,4.9433,4.9428,4.953,4.9444,4.9436,4.9428,4.9421,4.943,4.9545,4.9548,4.955,4.9552,0,4.8373,4.8386,4.8482,4.8585,4.8665,4.8747,4.8826,4.888,4.8916,4.8995,4.911,4.9181,4.9321,4.9432,4.9539,4.9587,4.9576,4.9578,4.9606,4.9602,4.9584,4.9593,4.9298,4.9571,4.9569,4.9568,4.9567,4.9566,4.8535,4.862,4.8699,4.8807,4.8868,4.8942,4.9027,4.9071,4.9168,4.9282,4.9291,4.9416,4.9496,4.9638,4.9691,4.9789,4.976,4.98,4.981,4.9819,4.9826,4.9569,4.9809,4.9808,4.9808,4.9807,4.9807,0,4.8765,4.8815,4.8913,4.9023,4.9107,4.9088,4.9174,4.9246,4.9355,4.943,4.952,4.9652,4.9759,4.9819,4.9926,4.9993,4.999,5.002,5.0015,5.0025,4.9846,4.9811,5.002,5.002,5.002,5.002,5.002,5.002,4.8895,4.9037,4.9059,4.9231,4.928,4.9401,4.9452,4.9519,4.9579,4.9726,4.9815,4.9853,4.9922,5.0033,5.0131,5.0145,5.0184,5.0218,5.0229,5.006,5.0038,5.0017,4.9984,5.0226,5.0227,5.0399,5.0401,5.0402]},{"header":{"parameterUnit":"m.s-1","parameterCategory":1,"la1":30.2991,"la2":30.254,"lo1":-89.0895,"lo2":-89.0444,"dy":0.0017,"dx":0.0017,"nx":28,"ny":28,"refTime":"2025-07-19T21:00:00:Z","depth":0,"parameterNumber":3,"parameterNumberName":"V-component_of_WINDS"},"data":[0,0,0,0,0,0,0,0,0,0,0,0,0,0,0,0,0,0,0,0,0,0,0,0,0,0,0,0,0,0,0,0,0,0,0,0,0,0,0,0,0,0,0,0,0,0,0,0,0,0,0,0,0,0,0,0,0,0,0.5432,0.5432,0,0.5447,0.5447,0.5447,0.5439,0.5438,0.5438,0.5437,0.5454,0.5455,0.5456,0,0,0,0,0,0,0,0,0,0,0,0,0,0.5394,0.5395,0.5432,0.5432,0.5432,0.5447,0.5447,0.5447,0.5439,0.5438,0.5438,0.5437,0.5454,0.5455,0.5456,0,0,0,0,0,0,0,0,0,0,0,0,0,0.541,0.5395,0.5431,0.5429,0.5429,0.5447,0.5447,0.5447,0.5439,0.5438,0.5437,0.5437,0.5453,0.5455,0.5456,0.5477,0,0,0.546,0.546,0,0,0,0,0,0,0,0,0.5409,0.5412,0.5429,0.543,0.543,0.544,0.544,0.5457,0.5439,0.5435,0.5437,0.5437,0.545,0.5451,0.5456,0.5477,0.5478,0.546,0.5461,0.5461,0.5461,0,0,0,0,0,0,0,0.5408,0.5411,0.5438,0.543,0.543,0.5428,0.5429,0.5443,0.5446,0.5436,0.5435,0.5437,0.545,0.5455,0.5456,0.5478,0.546,0.5461,0.5462,0.5462,0.5516,0.5517,0,0,0,0,0,0,0.5407,0.541,0.5437,0.5438,0.5418,0.5429,0.543,0.5437,0.5446,0.5447,0.5437,0.5436,0.5453,0.5455,0.5457,0.5481,0.5461,0.5462,0.5463,0.5516,0.5516,0.5517,0,0,0,0,0,0,0.5407,0.541,0.5437,0.5424,0.5427,0.543,0.5438,0.5438,0.5443,0.5447,0.5448,0.5442,0.5452,0.5455,0.5471,0.5481,0.5463,0.5464,0.5515,0.5516,0.5517,0.553,0,0,0,0,0,0,0.5405,0.541,0.5418,0.5424,0.5428,0.5451,0.5439,0.5439,0.5445,0.5444,0.5451,0.5452,0.5452,0.5469,0.5473,0.5483,0.5465,0.5514,0.5515,0.5517,0.5529,0.5531,0.5534,0,0,0,0,0,0.5404,0.5421,0.5418,0.5421,0.5438,0.5452,0.5454,0.5453,0.5446,0.5454,0.5456,0.5452,0.548,0.5471,0.5475,0.5485,0.5513,0.5515,0.5516,0.5528,0.5531,0.5533,0,0,0,0,0,0,0.5417,0.5422,0.5419,0.5438,0.5445,0.545,0.5461,0.5457,0.5466,0.5464,0.5463,0.5465,0.5482,0.5485,0.5476,0.5505,0.5495,0.5498,0.5503,0.5506,0.5508,0.5507,0.5466,0,0,0,0,0,0.5421,0.5432,0.5436,0.5453,0.5456,0.5458,0.5464,0.5462,0.5469,0.5472,0.5476,0.5482,0.5492,0.5499,0.5509,0.5529,0.553,0.5538,0.554,0.5542,0.5544,0.5554,0.5558,0.5522,0.5522,0.5522,0,0,0.5432,0.5436,0.5443,0.5456,0.546,0.5471,0.546,0.5472,0.548,0.5474,0.5489,0.5492,0.5499,0.5518,0.5526,0.5521,0.5554,0.5544,0.5546,0.5547,0.5556,0.556,0.5562,0.5523,0.5523,0.5523,0,0,0.5457,0.5461,0.5475,0.548,0.5486,0.5487,0.549,0.5496,0.5498,0.5513,0.5508,0.5517,0.5535,0.554,0.5545,0.557,0.5566,0.5573,0.5586,0.5596,0.5598,0.5601,0.5609,0.5613,0.5575,0.5575,0.5575,0,0.5469,0.5485,0.5483,0.5495,0.55,0.5494,0.5508,0.5513,0.5522,0.5526,0.552,0.5542,0.5546,0.5565,0.5571,0.5575,0.5578,0.5572,0.5598,0.5601,0.5603,0.5611,0.5614,0.5576,0.5576,0.5576,0.5575,0,0.5499,0.551,0.5521,0.553,0.5536,0.5549,0.5549,0.5556,0.5554,0.5555,0.557,0.5575,0.5585,0.5589,0.5587,0.5607,0.5604,0.5598,0.5588,0.5607,0.5615,0.5618,0.5577,0.5577,0.5576,0.5576,0,0,0.5534,0.554,0.5544,0.5547,0.5554,0.5562,0.5574,0.5584,0.5589,0.5596,0.5606,0.562,0.5615,0.562,0.5619,0.5627,0.5646,0.562,0.562,0.5625,0.5667,0.5672,0.5675,0.5643,0.5643,0.5644,0.5667,0,0.5558,0.558,0.5578,0.5598,0.5608,0.5601,0.5611,0.5616,0.5617,0.5626,0.5627,0.5637,0.5629,0.5632,0.564,0.5642,0.5654,0.564,0.5652,0.5653,0.5651,0.5679,0.5684,0.5706,0.567,0.567,0.567,0,0.5591,0.5597,0.5619,0.5622,0.5626,0.5636,0.5643,0.5652,0.5657,0.5657,0.5662,0.5659,0.5671,0.566,0.5676,0.5667,0.5671,0.5673,0.5673,0.5675,0.5663,0.5681,0.5713,0.5716,0.5675,0.5675,0.5674,0,0.5613,0.5627,0.5642,0.5645,0.565,0.5656,0.5659,0.5663,0.5668,0.5675,0.5678,0.5686,0.5691,0.5697,0.5696,0.5688,0.5712,0.5701,0.5712,0.5712,0.5718,0.5718,0.5751,0.5721,0.5721,0.5721,0.5721,0,0.5641,0.5654,0.5652,0.566,0.5674,0.5671,0.5686,0.5687,0.5691,0.5699,0.5694,0.5702,0.57,0.5708,0.5707,0.5721,0.5723,0.5723,0.5723,0.5724,0.5724,0.5727,0.5725,0.5722,0.5722,0.5721,0.5721,0,0.5669,0.5668,0.5682,0.5685,0.5686,0.5696,0.5699,0.5707,0.5707,0.5718,0.572,0.572,0.5729,0.5729,0.5739,0.5738,0.5755,0.5753,0.5753,0.5753,0.5763,0.5762,0.5799,0.5804,0.5772,0.5772,0.5772,0,0.5687,0.5697,0.57,0.5705,0.5708,0.5716,0.5721,0.5718,0.5724,0.5729,0.5737,0.5745,0.5752,0.5767,0.5768,0.5775,0.5773,0.5786,0.5775,0.5775,0.5773,0.5773,0.5773,0.5788,0.5788,0.5789,0.5789,0,0.5719,0.5717,0.5725,0.5731,0.5737,0.5743,0.5747,0.5752,0.5749,0.5756,0.5764,0.577,0.578,0.5788,0.5795,0.5797,0.5793,0.5792,0.5795,0.5796,0.5796,0.5796,0.5759,0.5792,0.5791,0.5791,0.5791,0.5791,0.5742,0.575,0.5753,0.5761,0.5764,0.5769,0.5776,0.5776,0.5784,0.5791,0.5789,0.5799,0.5803,0.5811,0.5814,0.5822,0.5817,0.5822,0.5823,0.5824,0.5825,0.5795,0.5823,0.5823,0.5823,0.5823,0.5823,0,0.5774,0.5775,0.5782,0.5789,0.5795,0.5789,0.5794,0.5799,0.5808,0.5811,0.5818,0.5827,0.5835,0.5836,0.5843,0.5849,0.5847,0.5851,0.5851,0.5851,0.5829,0.5825,0.5853,0.5853,0.5853,0.5853,0.5853,0.5853,0.5791,0.5804,0.5802,0.5816,0.5818,0.5827,0.583,0.5834,0.5836,0.5847,0.5853,0.5854,0.5856,0.5863,0.587,0.587,0.5873,0.5878,0.5877,0.5856,0.5853,0.585,0.5847,0.5878,0.5878,0.5899,0.5899,0.5899]}]]